Weather History for Columbia Airport, CA

Change the Weather History Date:

Tuesday, May 13, 2014

  Actual Average (KMOD) Record (KMOD)
Temperature  
Mean Temperature 65 °F -  
Max Temperature 86 °F 82 °F 100 °F (1976)
Min Temperature 44 °F 55 °F 41 °F (1962)
Degree Days  
Heating Degree Days 0 1  
Month to date heating degree days 20  
Since 1 July heating degree days 2154  
Cooling Degree Days 0 5  
Month to date cooling degree days 48  
Year to date cooling degree days 92  
Growing Degree Days 15 (Base 50)    
Moisture  
Dew Point 36 °F    
Average Humidity 37    
Maximum Humidity 66    
Minimum Humidity 14    
Precipitation  
Precipitation 0.00 in 0.02 in 0.14 in (1995)
Month to date precipitation 0.31  
Year to date precipitation 8.31  
Since 1 July precipitation 12.67  
Snow  
Snow 0.00 in - - ()
Month to date snowfall  
Since 1 July snowfall  
Snow Depth -    
Sea Level Pressure  
Sea Level Pressure 30.17 in    
Wind  
Wind Speed 2 mph (SSE)    
Max Wind Speed 8 mph    
Max Gust Speed -    
Visibility 10 miles    
Events      
T = Trace of Precipitation, MM = Missing Value Source: NWS Daily Summary

Daily Weather History Graph

Daily Weather History Graph

Search for Another Location

Airport:

Trip Planner

Search our weather history database for the weather conditions in past years. The results will help you decide how hot, cold, wet, or windy it might be!

Date:

Astronomy

May. 13, 2014 Rise Set
Actual Time 5:52 AM PDT 8:03 PM PDT
Civil Twilight 5:23 AM PDT 8:33 PM PDT
Nautical Twilight 4:47 AM PDT 9:09 PM PDT
Astronomical Twilight 4:08 AM PDT 9:48 PM PDT
Moon 7:11 PM PDT (5/13) 5:11 AM PDT (5/13)
Length of Visible Light 15h 09m
Length of Day
14h 10m
Waxing Gibbous, 99% of the Moon is Illuminated
May 13
Waxing Gibbous
May 14
Full
May 21
Last Quarter
May 28
New
Jun 5
First Quarter

Hourly Weather History & Observations

Time (PDT) Temp. Windchill Dew Point Humidity Pressure Visibility Wind Dir Wind Speed Gust Speed Precip Events Conditions
12:15 AM 51.8 °F - 39.2 °F 62% 30.12 in 10.0 mi NE 4.6 mph - N/A   Clear
12:35 AM 51.8 °F - 37.4 °F 58% 30.11 in 10.0 mi Calm Calm - N/A   Clear
12:55 AM 50.0 °F - 35.6 °F 58% 30.11 in 10.0 mi Calm Calm - N/A   Clear
1:15 AM 48.2 °F - 37.4 °F 66% 30.11 in 10.0 mi Calm Calm - N/A   Clear
1:35 AM 48.2 °F - 37.4 °F 66% 30.11 in 10.0 mi Calm Calm - N/A   Clear
1:55 AM 50.0 °F - 33.8 °F 54% 30.11 in 10.0 mi Calm Calm - N/A   Clear
2:15 AM 48.2 °F - 33.8 °F 58% 30.11 in 10.0 mi Calm Calm - N/A   Clear
2:35 AM 46.4 °F - 35.6 °F 66% 30.11 in 10.0 mi Calm Calm - N/A   Clear
2:55 AM 46.4 °F - 35.6 °F 66% 30.12 in 10.0 mi Calm Calm - N/A   Clear
3:15 AM 46.4 °F - 33.8 °F 62% 30.12 in 10.0 mi Calm Calm - N/A   Clear
3:35 AM 44.6 °F 43.1 °F 33.8 °F 66% 30.12 in 10.0 mi NE 3.5 mph - N/A   Clear
3:55 AM 44.6 °F - 32.0 °F 61% 30.12 in 10.0 mi Calm Calm - N/A   Clear
4:15 AM 44.6 °F - 32.0 °F 61% 30.12 in 10.0 mi Calm Calm - N/A   Clear
4:35 AM 44.6 °F - 32.0 °F 61% 30.12 in 10.0 mi Calm Calm - N/A   Clear
5:55 AM 46.4 °F - 32.0 °F 57% 30.14 in 10.0 mi Calm Calm - N/A   Clear
6:15 AM 48.2 °F - 32.0 °F 54% 30.15 in 10.0 mi Calm Calm - N/A   Clear
6:35 AM 48.2 °F - 37.4 °F 66% 30.16 in 10.0 mi Calm Calm - N/A   Clear
6:55 AM 53.6 °F - 37.4 °F 54% 30.17 in 10.0 mi Calm Calm - N/A   Clear
8:35 AM 71.6 °F - 30.2 °F 22% 30.19 in 10.0 mi Calm Calm - N/A   Clear
9:15 AM 75.2 °F - 33.8 °F 22% 30.20 in 10.0 mi SSE 3.5 mph - N/A   Clear
9:55 AM 77.0 °F - 33.8 °F 21% 30.20 in 10.0 mi SSE 4.6 mph - N/A   Clear
10:15 AM 77.0 °F - 35.6 °F 22% 30.21 in 10.0 mi Calm Calm - N/A   Clear
10:35 AM 80.6 °F - 37.4 °F 21% 30.21 in 10.0 mi SE 4.6 mph - N/A   Clear
10:55 AM 80.6 °F - 37.4 °F 21% 30.21 in 10.0 mi South 6.9 mph - N/A   Clear
11:15 AM 80.6 °F - 33.8 °F 18% 30.21 in 10.0 mi South 5.8 mph - N/A   Clear
11:35 AM 80.6 °F - 35.6 °F 20% 30.21 in 10.0 mi SE 6.9 mph - N/A   Clear
11:55 AM 82.4 °F - 32.0 °F 16% 30.21 in 10.0 mi South 5.8 mph - N/A   Clear
12:15 PM 82.4 °F - 32.0 °F 16% 30.21 in 10.0 mi SE 4.6 mph - N/A   Clear
12:35 PM 82.4 °F - 32.0 °F 16% 30.21 in 10.0 mi SSW 3.5 mph - N/A   Clear
12:55 PM 84.2 °F - 33.8 °F 16% 30.21 in 10.0 mi SE 5.8 mph - N/A   Clear
1:15 PM 84.2 °F - 32.0 °F 15% 30.20 in 10.0 mi SSE 8.1 mph - N/A   Clear
1:35 PM 84.2 °F - 33.8 °F 16% 30.20 in 10.0 mi SE 5.8 mph - N/A   Clear
1:55 PM 84.2 °F - 35.6 °F 18% 30.20 in 10.0 mi SSE 8.1 mph - N/A   Clear
2:15 PM 84.2 °F - 35.6 °F 18% 30.19 in 10.0 mi SSE 5.8 mph - N/A   Clear
2:35 PM 84.2 °F - 32.0 °F 15% 30.19 in 10.0 mi SSE 6.9 mph - N/A   Clear
2:55 PM 86.0 °F - 32.0 °F 14% 30.18 in 10.0 mi South 6.9 mph - N/A   Clear
3:15 PM 84.2 °F - 32.0 °F 15% 30.18 in 10.0 mi SSE 3.5 mph - N/A   Clear
3:35 PM 84.2 °F - 32.0 °F 15% 30.17 in 10.0 mi South 4.6 mph - N/A   Clear
3:55 PM 84.2 °F - 32.0 °F 15% 30.17 in 10.0 mi Calm Calm - N/A   Clear
4:15 PM 84.2 °F - 32.0 °F 15% 30.17 in 10.0 mi WSW 8.1 mph - N/A   Clear
4:35 PM 84.2 °F - 32.0 °F 15% 30.17 in 10.0 mi SSW 5.8 mph - N/A   Clear
4:55 PM 84.2 °F - 32.0 °F 15% 30.17 in 10.0 mi WSW 4.6 mph - N/A   Clear
5:15 PM 82.4 °F - 30.2 °F 15% 30.16 in 10.0 mi SW 4.6 mph - N/A   Clear
5:35 PM 82.4 °F - 28.4 °F 14% 30.16 in 10.0 mi SSW 4.6 mph - N/A   Clear
5:55 PM 82.4 °F - 30.2 °F 15% 30.16 in 10.0 mi Calm Calm - N/A   Clear
6:15 PM 82.4 °F - 32.0 °F 16% 30.16 in 10.0 mi Calm Calm - N/A   Clear
6:35 PM 80.6 °F - 33.8 °F 18% 30.15 in 10.0 mi Calm Calm - N/A   Clear
6:55 PM 77.0 °F - 37.4 °F 24% 30.15 in 10.0 mi Calm Calm - N/A   Clear
7:15 PM 73.4 °F - 42.8 °F 33% 30.15 in 10.0 mi Calm Calm - N/A   Clear
7:35 PM 69.8 °F - 41.0 °F 35% 30.16 in 10.0 mi Calm Calm - N/A   Clear
7:55 PM 66.2 °F - 42.8 °F 43% 30.16 in 10.0 mi NE 3.5 mph - N/A   Clear
8:15 PM 64.4 °F - 42.8 °F 45% 30.16 in 10.0 mi Calm Calm - N/A   Clear
8:35 PM 62.6 °F - 41.0 °F 45% 30.17 in 10.0 mi Calm Calm - N/A   Clear
8:55 PM 62.6 °F - 41.0 °F 45% 30.17 in 10.0 mi Calm Calm - N/A   Clear
9:15 PM 60.8 °F - 41.0 °F 48% 30.18 in 10.0 mi Calm Calm - N/A   Clear
9:35 PM 60.8 °F - 39.2 °F 45% 30.18 in 10.0 mi Calm Calm - N/A   Clear
9:55 PM 59.0 °F - 39.2 °F 48% 30.19 in 10.0 mi Calm Calm - N/A   Clear
10:15 PM 59.0 °F - 41.0 °F 51% 30.19 in 10.0 mi Calm Calm - N/A   Clear
10:35 PM 57.2 °F - 41.0 °F 55% 30.19 in 10.0 mi Calm Calm - N/A   Clear
10:55 PM 57.2 °F - 41.0 °F 55% 30.19 in 10.0 mi NE 4.6 mph - N/A   Clear
11:15 PM 55.4 °F - 41.0 °F 58% 30.19 in 10.0 mi NE 3.5 mph - N/A   Clear
11:35 PM 55.4 °F - 41.0 °F 58% 30.20 in 10.0 mi Calm Calm - N/A   Clear
11:55 PM 55.4 °F - 41.0 °F 58% 30.19 in 10.0 mi NE 4.6 mph - N/A   Clear